{"data":{"norad_id":52708,"epoch":"2026-09-20T05:10:37.426080Z","epoch_age_seconds":91039,"freshness":"FRESH","line1":"1 52708U 22053BE  26263.21571095  .00000198  00000+0  16590-4 0  9995","line2":"2 52708  53.1602 327.1935 0001240  75.8641 284.2500 15.35401933241078","mean_motion":15.35401933,"eccentricity":0.000124,"inclination_deg":53.1602,"raan_deg":327.1935,"arg_perigee_deg":75.8641,"mean_anomaly_deg":284.25,"bstar":1.659e-5,"rev_number":24107,"period_min":93.78651733142,"perigee_km":458.87900857481,"apogee_km":460.57479882292,"semimajor_km":6837.8639036989,"source":"CELESTRAK","updated_at":"2026-09-20T09:00:40.110233Z"}}